Radiation Dose at Monitoring Post of Fukushima Daini Nuclear Power Station
Date,Time,MP-1(microSv/h),MP-2(microSv/h),MP-3(microSv/h),MP-4(microSv/h),MP-5(microSv/h),MP-6(microSv/h),MP-7(microSv/h),Wind Direction,Wind Velocity(m/s),Rain
2020/12/30,00:00,0.180,0.162,0.262,0.249,0.241,0.144,0.086,south,7.7,No
2020/12/30,00:10,0.181,0.162,0.263,0.250,0.241,0.143,0.087,south-southeast,9.0,No
2020/12/30,00:20,0.180,0.161,0.264,0.250,0.242,0.143,0.086,south,9.6,No
2020/12/30,00:30,0.180,0.162,0.264,0.249,0.242,0.143,0.086,south,8.1,No
2020/12/30,00:40,0.180,0.162,0.264,0.249,0.243,0.143,0.087,south,4.6,No
2020/12/30,00:50,0.180,0.161,0.263,0.250,0.244,0.143,0.087,southwest,3.0,No
2020/12/30,01:00,0.180,0.162,0.264,0.250,0.241,0.143,0.086,west,1.9,No
2020/12/30,01:10,0.180,0.162,0.263,0.250,0.243,0.143,0.086,northwest,2.9,No
2020/12/30,01:20,0.180,0.161,0.264,0.250,0.243,0.144,0.087,north,2.8,No
2020/12/30,01:30,0.180,0.161,0.265,0.250,0.241,0.144,0.086,north-northwest,2.4,No
2020/12/30,01:40,0.180,0.161,0.264,0.249,0.243,0.144,0.087,west-northwest,2.6,No
2020/12/30,01:50,0.181,0.162,0.263,0.249,0.243,0.144,0.086,west-northwest,2.0,No
2020/12/30,02:00,0.180,0.162,0.264,0.251,0.242,0.144,0.087,west-northwest,2.2,No
2020/12/30,02:10,0.179,0.160,0.265,0.251,0.242,0.143,0.086,west,2.9,No
2020/12/30,02:20,0.180,0.162,0.263,0.249,0.243,0.144,0.086,northwest,3.1,No
2020/12/30,02:30,0.179,0.161,0.264,0.250,0.242,0.144,0.087,north,2.7,No
2020/12/30,02:40,0.178,0.163,0.264,0.250,0.242,0.143,0.087,north-northwest,1.8,No
2020/12/30,02:50,0.180,0.161,0.263,0.250,0.243,0.144,0.087,northwest,2.5,No
2020/12/30,03:00,0.180,0.162,0.263,0.250,0.242,0.143,0.087,west-northwest,1.2,No
2020/12/30,03:10,0.178,0.162,0.263,0.250,0.241,0.144,0.086,west,2.0,No
2020/12/30,03:20,0.179,0.161,0.263,0.251,0.242,0.144,0.087,west-northwest,2.2,No
2020/12/30,03:30,0.180,0.161,0.263,0.249,0.241,0.144,0.086,south,1.6,No
2020/12/30,03:40,0.179,0.162,0.263,0.250,0.243,0.144,0.087,southeast,3.5,No
2020/12/30,03:50,0.178,0.162,0.264,0.250,0.241,0.144,0.086,south-southwest,1.4,No
2020/12/30,04:00,0.178,0.161,0.264,0.249,0.243,0.143,0.087,west-southwest,2.2,No
2020/12/30,04:10,0.179,0.162,0.263,0.250,0.242,0.144,0.088,west,0.6,No
2020/12/30,04:20,0.180,0.162,0.264,0.250,0.242,0.144,0.086,southeast,1.3,No
2020/12/30,04:30,0.180,0.161,0.263,0.251,0.242,0.143,0.086,south,3.1,No
2020/12/30,04:40,0.179,0.162,0.264,0.252,0.242,0.143,0.086,south-southwest,4.2,No
2020/12/30,04:50,0.179,0.162,0.265,0.251,0.242,0.144,0.086,south-southwest,3.7,No
2020/12/30,05:00,0.179,0.161,0.263,0.251,0.242,0.144,0.087,south-southwest,3.8,No
2020/12/30,05:10,0.181,0.161,0.263,0.251,0.243,0.143,0.088,southwest,3.6,No
2020/12/30,05:20,0.180,0.161,0.263,0.250,0.242,0.143,0.086,southwest,3.6,No
2020/12/30,05:30,0.179,0.162,0.263,0.249,0.241,0.143,0.086,southwest,3.5,No
2020/12/30,05:40,0.179,0.163,0.264,0.249,0.241,0.144,0.086,southwest,1.6,No
2020/12/30,05:50,0.180,0.162,0.264,0.249,0.243,0.144,0.087,southwest,2.2,No
2020/12/30,06:00,0.180,0.161,0.263,0.251,0.242,0.143,0.087,southwest,1.8,No
2020/12/30,06:10,0.180,0.162,0.264,0.250,0.243,0.143,0.087,west-southwest,0.9,No
2020/12/30,06:20,0.180,0.161,0.264,0.249,0.243,0.143,0.086,west-northwest,1.8,No
2020/12/30,06:30,0.180,0.161,0.265,0.249,0.241,0.143,0.086,northwest,1.8,No
2020/12/30,06:40,0.179,0.162,0.264,0.250,0.242,0.143,0.086,northwest,3.2,No
2020/12/30,06:50,0.180,0.163,0.265,0.251,0.243,0.143,0.087,northwest,2.9,No
2020/12/30,07:00,0.181,0.161,0.264,0.251,0.242,0.142,0.087,northwest,3.0,No
2020/12/30,07:10,0.180,0.162,0.263,0.250,0.242,0.143,0.088,northwest,3.8,No
2020/12/30,07:20,0.180,0.162,0.263,0.250,0.243,0.143,0.087,northwest,4.2,No
2020/12/30,07:30,0.180,0.161,0.264,0.250,0.242,0.143,0.087,northwest,4.0,No
2020/12/30,07:40,0.180,0.162,0.264,0.248,0.242,0.143,0.087,northwest,3.1,No
2020/12/30,07:50,0.180,0.161,0.264,0.249,0.242,0.145,0.087,northwest,2.2,No
2020/12/30,08:00,0.180,0.162,0.264,0.250,0.242,0.144,0.087,west-northwest,2.0,No
2020/12/30,08:10,0.181,0.161,0.264,0.250,0.243,0.143,0.087,northwest,2.5,No
2020/12/30,08:20,0.179,0.161,0.263,0.250,0.243,0.144,0.086,northwest,2.3,No
2020/12/30,08:30,0.180,0.163,0.263,0.251,0.242,0.144,0.087,north-northwest,4.4,No
2020/12/30,08:40,0.182,0.162,0.262,0.250,0.243,0.145,0.087,north-northwest,5.0,No
2020/12/30,08:50,0.180,0.161,0.265,0.250,0.243,0.144,0.087,north-northwest,7.1,No
2020/12/30,09:00,0.180,0.164,0.264,0.251,0.242,0.145,0.087,north-northwest,8.1,No
2020/12/30,09:10,0.181,0.161,0.264,0.250,0.243,0.144,0.087,north-northwest,6.7,No
2020/12/30,09:20,0.181,0.162,0.264,0.251,0.242,0.143,0.087,north,6.8,No
2020/12/30,09:30,0.181,0.162,0.265,0.250,0.243,0.144,0.087,north,7.4,No
2020/12/30,09:40,0.181,0.161,0.264,0.252,0.243,0.144,0.088,north-northwest,7.3,No
2020/12/30,09:50,0.181,0.161,0.264,0.249,0.242,0.144,0.087,north-northwest,7.3,No
2020/12/30,10:00,0.180,0.162,0.265,0.251,0.244,0.144,0.087,north-northwest,7.7,No
2020/12/30,10:10,0.180,0.162,0.263,0.251,0.243,0.145,0.087,north-northwest,7.5,No
2020/12/30,10:20,0.181,0.161,0.264,0.251,0.243,0.145,0.087,north-northwest,8.4,Yes
2020/12/30,10:30,0.180,0.162,0.265,0.250,0.243,0.143,0.087,north-northwest,7.3,No
2020/12/30,10:40,0.181,0.162,0.264,0.251,0.242,0.144,0.087,north-northwest,8.5,No
2020/12/30,10:50,0.181,0.161,0.265,0.251,0.243,0.144,0.087,north-northwest,8.4,No
2020/12/30,11:00,0.180,0.162,0.264,0.250,0.243,0.143,0.087,north-northwest,8.1,No
2020/12/30,11:10,0.180,0.162,0.264,0.250,0.243,0.144,0.087,north-northwest,8.2,Yes
2020/12/30,11:20,0.182,0.163,0.265,0.252,0.244,0.145,0.088,northwest,7.7,Yes
2020/12/30,11:30,0.183,0.165,0.266,0.252,0.246,0.146,0.090,north-northwest,8.1,Yes
2020/12/30,11:40,0.186,0.167,0.267,0.254,0.247,0.149,0.092,northwest,8.1,Yes
2020/12/30,11:50,0.186,0.167,0.267,0.255,0.247,0.150,0.093,northwest,7.7,Yes
2020/12/30,12:00,0.185,0.168,0.267,0.254,0.246,0.150,0.094,northwest,7.0,Yes
2020/12/30,12:10,0.185,0.167,0.267,0.254,0.247,0.149,0.093,northwest,6.5,Yes
2020/12/30,12:20,0.184,0.167,0.266,0.253,0.245,0.148,0.092,north-northwest,6.8,Yes
2020/12/30,12:30,0.185,0.167,0.268,0.253,0.245,0.149,0.093,northwest,7.0,Yes
2020/12/30,12:40,0.185,0.167,0.267,0.252,0.246,0.149,0.094,north-northwest,7.5,Yes
2020/12/30,12:50,0.185,0.167,0.265,0.252,0.245,0.149,0.094,north-northwest,7.9,Yes
2020/12/30,13:00,0.186,0.166,0.265,0.252,0.244,0.147,0.092,north-northwest,8.7,Yes
2020/12/30,13:10,0.183,0.166,0.265,0.251,0.243,0.147,0.091,north-northwest,8.4,Yes
2020/12/30,13:20,0.183,0.165,0.264,0.250,0.242,0.147,0.090,north-northwest,9.0,Yes
2020/12/30,13:30,0.183,0.166,0.264,0.250,0.242,0.147,0.091,north-northwest,8.2,Yes
2020/12/30,13:40,0.184,0.165,0.263,0.250,0.243,0.146,0.091,north-northwest,6.8,Yes
2020/12/30,13:50,0.186,0.166,0.265,0.249,0.245,0.148,0.094,north-northwest,8.4,Yes
2020/12/30,14:00,0.186,0.168,0.265,0.251,0.244,0.149,0.097,north-northwest,8.7,Yes
2020/12/30,14:10,0.187,0.167,0.265,0.250,0.243,0.148,0.097,north,8.1,Yes
2020/12/30,14:20,0.188,0.167,0.265,0.251,0.244,0.148,0.096,north,9.6,Yes
2020/12/30,14:30,0.187,0.168,0.265,0.250,0.244,0.148,0.096,north,7.0,Yes
2020/12/30,14:40,0.187,0.169,0.267,0.250,0.245,0.150,0.095,north,9.0,Yes
2020/12/30,14:50,0.187,0.168,0.264,0.251,0.244,0.149,0.096,north-northwest,8.8,Yes
2020/12/30,15:00,0.187,0.169,0.265,0.251,0.245,0.150,0.096,north,7.5,Yes
2020/12/30,15:10,0.187,0.168,0.267,0.252,0.246,0.151,0.096,north-northwest,9.2,Yes
2020/12/30,15:20,0.186,0.169,0.268,0.251,0.245,0.151,0.096,north-northwest,8.1,Yes
2020/12/30,15:30,0.186,0.169,0.266,0.251,0.244,0.151,0.095,northwest,9.2,Yes
2020/12/30,15:40,0.184,0.168,0.267,0.252,0.245,0.150,0.096,north-northwest,9.2,Yes
2020/12/30,15:50,0.185,0.168,0.266,0.251,0.245,0.149,0.095,north-northwest,8.4,Yes
2020/12/30,16:00,0.185,0.169,0.266,0.251,0.246,0.150,0.094,north-northwest,9.3,Yes
2020/12/30,16:10,0.185,0.168,0.266,0.252,0.245,0.151,0.095,north-northwest,7.6,Yes
2020/12/30,16:20,0.185,0.169,0.267,0.251,0.247,0.152,0.095,northwest,9.3,Yes
2020/12/30,16:30,0.187,0.170,0.267,0.253,0.249,0.152,0.096,north-northwest,10.6,Yes
2020/12/30,16:40,0.188,0.171,0.268,0.254,0.248,0.153,0.098,northwest,8.1,Yes
2020/12/30,16:50,0.188,0.172,0.268,0.254,0.249,0.153,0.097,north-northwest,12.2,Yes
2020/12/30,17:00,0.187,0.170,0.267,0.252,0.247,0.152,0.096,north-northwest,13.7,Yes
2020/12/30,17:10,0.186,0.168,0.266,0.251,0.247,0.150,0.096,north-northwest,11.4,Yes
2020/12/30,17:20,0.185,0.169,0.266,0.252,0.247,0.152,0.096,northwest,10.1,Yes
2020/12/30,17:30,0.187,0.170,0.266,0.253,0.248,0.152,0.097,northwest,11.4,Yes
2020/12/30,17:40,0.189,0.173,0.270,0.253,0.249,0.154,0.098,northwest,10.0,Yes
2020/12/30,17:50,0.191,0.175,0.273,0.255,0.251,0.157,0.100,north-northwest,9.2,Yes
2020/12/30,18:00,0.192,0.177,0.273,0.256,0.251,0.157,0.101,north,12.2,Yes
2020/12/30,18:10,0.193,0.175,0.272,0.256,0.253,0.158,0.101,north,11.7,Yes
2020/12/30,18:20,0.191,0.175,0.271,0.255,0.250,0.157,0.100,north,10.3,Yes
2020/12/30,18:30,0.192,0.175,0.272,0.255,0.251,0.156,0.100,north-northwest,10.9,Yes
2020/12/30,18:40,0.192,0.175,0.271,0.255,0.251,0.155,0.100,north-northwest,11.7,Yes
2020/12/30,18:50,0.192,0.175,0.271,0.255,0.250,0.153,0.099,north-northwest,12.0,Yes
2020/12/30,19:00,0.190,0.174,0.270,0.253,0.248,0.154,0.099,north-northwest,12.9,Yes
2020/12/30,19:10,0.187,0.171,0.269,0.251,0.246,0.153,0.096,north-northwest,11.1,Yes
2020/12/30,19:20,0.186,0.170,0.267,0.250,0.246,0.150,0.095,northwest,13.1,No
2020/12/30,19:30,0.185,0.168,0.264,0.249,0.245,0.148,0.093,northwest,11.8,No
2020/12/30,19:40,0.184,0.165,0.264,0.246,0.243,0.147,0.091,northwest,11.5,No
2020/12/30,19:50,0.183,0.164,0.261,0.246,0.243,0.146,0.091,north-northwest,11.1,No
2020/12/30,20:00,0.181,0.163,0.261,0.245,0.241,0.144,0.089,northwest,11.5,No
2020/12/30,20:10,0.180,0.162,0.260,0.244,0.242,0.143,0.088,northwest,10.1,No
2020/12/30,20:20,0.179,0.162,0.260,0.244,0.240,0.144,0.088,northwest,10.9,No
2020/12/30,20:30,0.178,0.159,0.258,0.243,0.239,0.142,0.088,north-northwest,10.3,No
2020/12/30,20:40,0.178,0.160,0.260,0.243,0.240,0.142,0.087,north-northwest,9.8,No
2020/12/30,20:50,0.177,0.159,0.257,0.242,0.239,0.141,0.087,north-northwest,8.4,No
2020/12/30,21:00,0.178,0.159,0.258,0.242,0.238,0.141,0.085,north-northwest,9.3,No
2020/12/30,21:10,0.178,0.158,0.257,0.242,0.238,0.140,0.086,north-northwest,8.7,No
2020/12/30,21:20,0.177,0.158,0.257,0.242,0.239,0.140,0.086,north,9.0,No
2020/12/30,21:30,0.176,0.158,0.257,0.241,0.238,0.140,0.084,north-northwest,9.2,No
2020/12/30,21:40,0.176,0.158,0.255,0.241,0.238,0.140,0.085,north,7.0,No
2020/12/30,21:50,0.177,0.158,0.257,0.242,0.239,0.140,0.086,north-northwest,7.9,No
2020/12/30,22:00,0.177,0.160,0.255,0.241,0.238,0.140,0.085,north-northwest,8.6,No
2020/12/30,22:10,0.177,0.158,0.256,0.242,0.237,0.140,0.085,north-northwest,8.7,No
2020/12/30,22:20,0.176,0.158,0.257,0.242,0.238,0.139,0.085,north-northwest,7.5,No
2020/12/30,22:30,0.176,0.158,0.257,0.241,0.237,0.140,0.085,north-northwest,9.3,No
2020/12/30,22:40,0.176,0.158,0.256,0.240,0.237,0.139,0.085,north-northwest,7.4,No
2020/12/30,22:50,0.176,0.158,0.255,0.241,0.237,0.139,0.085,north-northwest,8.2,No
2020/12/30,23:00,0.176,0.159,0.257,0.241,0.236,0.140,0.084,north,7.5,No
2020/12/30,23:10,0.177,0.159,0.256,0.241,0.238,0.140,0.084,north-northwest,5.9,No
2020/12/30,23:20,0.176,0.159,0.256,0.241,0.237,0.139,0.084,northwest,5.5,No
2020/12/30,23:30,0.176,0.159,0.256,0.241,0.238,0.140,0.084,north,5.4,No
2020/12/30,23:40,0.177,0.158,0.256,0.240,0.238,0.139,0.084,north,7.0,No
2020/12/30,23:50,0.176,0.158,0.254,0.241,0.237,0.139,0.085,north-northwest,6.0,No
